Change the Weather History Date:

Friday, August 16, 2013

  Actual Average Record
Temperature  
Mean Temperature 61 °F 69 °F  
Max Temperature 74 °F 80 °F 101 °F (1988)
Min Temperature 47 °F 59 °F 47 °F (1992)
Degree Days  
Heating Degree Days 4 1  
Month to date heating degree days 21 5  
Since 1 June heating degree days 97 55  
Since 1 July heating degree days 43 14  
Cooling Degree Days 0 5  
Month to date cooling degree days 21 89  
Year to date cooling degree days 435 481  
Since 1 June cooling degree days 402 445  
Growing Degree Days 10 (Base 50)    
Moisture  
Dew Point 53 °F    
Average Humidity 79    
Maximum Humidity 100    
Minimum Humidity 57    
Precipitation  
Precipitation 0.00 in 0.13 in 2.50 in (1977)
Month to date precipitation 1.25 2.26  
Sea Level Pressure  
Sea Level Pressure 30.19 in    
Wind  
Wind Speed 3 mph (SSE)    
Max Wind Speed 13 mph    
Max Gust Speed 18 mph    
Visibility 6 miles    
Events Fog    
T = Trace of Precipitation, MM = Missing Value Source: NWS Daily Summary

Daily Weather History Graph

Daily Weather History Graph

Search for Another Location

Airport or City:

Trip Planner

Search our weather history database for the weather conditions in past years. The results will help you decide how hot, cold, wet, or windy it might be!

Date:

Astronomy

Aug. 16, 2013 Rise Set
Actual Time 6:25 AM CDT 8:20 PM CDT
Civil Twilight 5:54 AM CDT 8:50 PM CDT
Nautical Twilight 5:16 AM CDT 9:28 PM CDT
Astronomical Twilight 4:35 AM CDT 10:08 PM CDT
Moon 4:43 PM CDT (8/16) 1:25 AM CDT (8/16)
Length of Visible Light 14h 56m
Length of Day
13h 54m
Waxing Gibbous, 75% of the Moon is Illuminated
Aug 16
Waxing Gibbous
Aug 20
Full
Aug 28
Last Quarter
Sep 5
New
Sep 12
First Quarter

Hourly Weather History & Observations

Time (CDT) Temp. Dew Point Humidity Pressure Visibility Wind Dir Wind Speed Gust Speed Precip Events Conditions
12:52 AM 52.0 °F 52.0 °F 100% 30.16 in 8.0 mi Calm Calm - N/A   Clear
1:52 AM 50.0 °F 48.9 °F 96% 30.16 in 7.0 mi Calm Calm - N/A   Partly Cloudy
2:31 AM 48.2 °F 48.2 °F 100% 30.16 in 1.5 mi Calm Calm - N/A   Scattered Clouds
2:33 AM 48.2 °F 48.2 °F 100% 30.16 in 0.8 mi Calm Calm - N/A   Mist
2:46 AM 48.2 °F 48.2 °F 100% 30.16 in 1.2 mi Calm Calm - N/A   Mostly Cloudy
2:52 AM 48.9 °F 48.9 °F 100% 30.16 in 0.8 mi Calm Calm - N/A   Mist
3:01 AM 48.2 °F 48.2 °F 100% 30.16 in 1.2 mi Calm Calm - N/A   Mostly Cloudy
3:20 AM 48.2 °F 48.2 °F 100% 30.16 in 0.2 mi Calm Calm - N/A Fog Fog
3:52 AM 46.9 °F 46.9 °F 100% 30.17 in 0.2 mi Calm Calm - N/A Fog Fog
4:52 AM 46.9 °F 46.9 °F 100% 30.17 in 0.2 mi Calm Calm - N/A Fog Fog
5:52 AM 46.9 °F 46.9 °F 100% 30.18 in 0.2 mi Calm Calm - N/A Fog Fog
6:52 AM 48.0 °F 48.0 °F 100% 30.20 in 0.2 mi Calm Calm - N/A Fog Fog
7:52 AM 51.1 °F 51.1 °F 100% 30.21 in 0.2 mi Calm Calm - N/A Fog Fog
8:29 AM 55.4 °F 55.4 °F 100% 30.21 in 1.2 mi SE 3.5 mph - N/A   Mostly Cloudy
8:33 AM 57.2 °F 57.2 °F 100% 30.21 in 3.0 mi SE 3.5 mph - N/A   Mostly Cloudy
8:42 AM 57.2 °F 57.2 °F 100% 30.21 in 6.0 mi SE 3.5 mph - N/A   Scattered Clouds
8:52 AM 59.0 °F 59.0 °F 100% 30.22 in 8.0 mi SE 4.6 mph - N/A   Clear
9:52 AM 64.9 °F 57.0 °F 75% 30.22 in 10.0 mi SSE 6.9 mph - N/A   Clear
10:52 AM 68.0 °F 57.9 °F 70% 30.22 in 10.0 mi SSE 6.9 mph - N/A   Clear
11:52 AM 70.0 °F 55.0 °F 59% 30.21 in 10.0 mi SSE 8.1 mph - N/A   Partly Cloudy
12:52 PM 70.0 °F 57.0 °F 63% 30.20 in 10.0 mi Variable 6.9 mph - N/A   Mostly Cloudy
1:52 PM 72.0 °F 55.9 °F 57% 30.20 in 10.0 mi South 9.2 mph - N/A   Scattered Clouds
2:52 PM 72.0 °F 55.9 °F 57% 30.19 in 10.0 mi South 9.2 mph - N/A   Overcast
3:52 PM 72.0 °F 55.9 °F 57% 30.19 in 10.0 mi South 6.9 mph - N/A   Overcast
4:52 PM 73.9 °F 57.0 °F 55% 30.18 in 10.0 mi South 6.9 mph - N/A   Partly Cloudy
5:52 PM 72.0 °F 57.0 °F 59% 30.18 in 10.0 mi Calm Calm - N/A   Partly Cloudy
6:52 PM 70.0 °F 57.0 °F 63% 30.18 in 10.0 mi South 3.5 mph - N/A   Scattered Clouds
7:52 PM 66.9 °F 60.1 °F 79% 30.18 in 10.0 mi Calm Calm - N/A   Clear
8:52 PM 61.0 °F 57.0 °F 87% 30.19 in 10.0 mi Calm Calm - N/A   Clear
9:52 PM 59.0 °F 55.9 °F 90% 30.19 in 10.0 mi Calm Calm - N/A   Clear
10:52 PM 55.0 °F 53.1 °F 93% 30.20 in 10.0 mi SSE 4.6 mph - N/A   Clear
11:52 PM 55.0 °F 53.1 °F 93% 30.19 in 10.0 mi South 3.5 mph - N/A   Clear